Location: Hains Lake
(37.8540°N, 99.8578°W)
Time: 14:02:37
(UTC+00:00)

Transit 2A - Pass Details

Date: 26 April 2021
Orbit: 602 x 957 km, 66.7° (Epoch: 13 May)

Event Time Altitude Azimuth Distance (km) Brightness Sun altitude
Rises 11:03:15 0° 179° (S) 3,130 8.9 -9.3°
Reaches altitude 10° 11:05:58 10° 167° (SSE) 2,153 8.2 -8.8°
Maximum altitude 11:10:00 27° 111° (ESE) 1,276 7.7 -8.0°
Drops below altitude 10° 11:13:48 10° 54° (NE) 2,020 9.8 -7.4°
Sets 11:16:16 0° 42° (NE) 2,898 10.4 -6.9°
